Location: Castillon
(43.1358°N, 0.8654°E)
Time: 19:33:46
(UTC+00:00)

Cosmos 1602 Rocket - Pass Details

Date: 24 January 2021
Orbit: 604 x 632 km, 82.5° (Epoch: 28 February)

Event Time Altitude Azimuth Distance (km) Brightness Sun altitude
Rises 17:55:20 0° 168° (SSE) 2,851 7.0 -10.5°
Reaches altitude 10° 17:57:37 10° 161° (SSE) 1,955 6.1 -10.9°
Maximum altitude 18:01:40 40° 92° (E) 903 3.9 -11.6°
Drops below altitude 10° 18:05:47 10° 23° (NNE) 1,985 5.8 -12.3°
Sets 18:08:06 0° 16° (NNE) 2,900 6.7 -12.8°
